Total_Precipitation_Accumulation
0.54 0.42 0.52 0.60 0.54 0.56 0.85 0.89 0.80 0.48 0.41 0.43 0.41 0.40 0.40 0.40 0.40 0.38 0.39 0.44 0.49 0.56 0.61 0.66 0.72 0.81 0.87 0.92 0.95 1.00 1.12 1.20 1.28 1.32 1.39 1.42 1.38 1.48 1.67 1.63 1.47 1.38 1.36 1.42
0.49 0.33 0.40 0.48 0.39 0.42 0.49 0.50 0.48 0.36 0.37 0.38 0.36 0.31 0.33 0.37 0.40 0.42 0.43 0.45 0.48 0.55 0.60 0.67 0.74 0.84 0.96 0.97 0.97 0.94 1.01 1.13 1.22 1.31 1.44 1.44 1.37 1.42 1.55 1.64 1.57 1.46 1.39 1.40
0.77 0.37 0.63 0.70 0.47 0.45 0.48 0.47 0.51 0.57 0.49 0.37 0.36 0.36 0.42 0.46 0.48 0.48 0.48 0.49 0.48 0.54 0.61 0.70 0.76 0.86 0.98 1.00 0.98 0.96 0.98 1.05 1.14 1.21 1.36 1.42 1.39 1.46 1.51 1.59 1.67 1.66 1.50 1.38
1.28 0.89 1.19 0.61 0.32 0.36 0.43 0.48 0.54 0.52 0.42 0.41 0.44 0.40 0.40 0.47 0.54 0.55 0.51 0.50 0.50 0.55 0.62 0.67 0.74 0.81 0.88 0.93 0.95 1.01 1.03 1.06 1.12 1.15 1.20 1.33 1.43 1.44 1.46 1.50 1.55 1.62 1.57 1.46
1.89 1.34 0.72 0.33 0.27 0.36 0.49 0.55 0.47 0.42 0.38 0.35 0.33 0.30 0.32 0.34 0.42 0.53 0.53 0.54 0.55 0.59 0.63 0.65 0.68 0.76 0.86 0.90 0.91 1.03 1.11 1.11 1.10 1.07 1.12 1.24 1.33 1.41 1.44 1.46 1.43 1.45 1.44 1.44
2.13 1.66 0.79 0.44 0.27 0.25 0.41 0.69 0.42 0.37 0.40 0.36 0.35 0.47 0.38 0.32 0.39 0.50 0.48 0.51 0.57 0.60 0.58 0.62 0.67 0.73 0.85 0.90 0.88 1.00 1.09 1.13 1.05 0.97 0.97 1.01 1.12 1.30 1.40 1.41 1.35 1.36 1.37 1.37
1.77 1.47 0.65 0.41 0.27 0.30 0.68 0.76 0.39 0.37 0.41 0.42 0.48 0.56 0.44 0.39 0.44 0.48 0.46 0.49 0.52 0.55 0.55 0.64 0.69 0.70 0.81 0.89 0.94 0.99 1.06 1.13 1.04 0.96 0.95 0.96 1.03 1.21 1.34 1.41 1.38 1.32 1.28 1.29
1.31 1.52 0.83 0.40 0.41 0.68 0.79 0.44 0.34 0.32 0.33 0.36 0.34 0.32 0.31 0.35 0.42 0.44 0.41 0.41 0.44 0.49 0.53 0.61 0.67 0.71 0.79 0.87 0.95 1.02 1.07 1.08 1.06 1.04 1.00 1.01 1.05 1.19 1.32 1.40 1.45 1.39 1.29 1.26
0.98 0.84 0.55 0.43 0.55 0.58 0.50 0.41 0.31 0.32 0.30 0.29 0.29 0.29 0.32 0.36 0.39 0.42 0.40 0.40 0.41 0.47 0.50 0.57 0.64 0.71 0.82 0.89 0.91 0.98 1.04 1.08 1.09 1.10 1.07 1.09 1.12 1.21 1.33 1.40 1.44 1.41 1.32 1.25
0.69 0.44 0.36 0.38 0.42 0.42 0.38 0.36 0.31 0.31 0.29 0.27 0.27 0.27 0.31 0.35 0.36 0.38 0.38 0.39 0.41 0.46 0.49 0.57 0.63 0.67 0.77 0.85 0.86 0.87 0.93 1.04 1.05 1.08 1.14 1.19 1.21 1.22 1.31 1.40 1.46 1.36 1.29 1.21
0.61 0.37 0.34 0.32 0.33 0.34 0.29 0.26 0.25 0.26 0.26 0.27 0.27 0.27 0.30 0.33 0.35 0.38 0.44 0.44 0.46 0.49 0.51 0.59 0.66 0.71 0.77 0.80 0.80 0.82 0.86 0.99 1.09 1.12 1.17 1.23 1.25 1.26 1.33 1.33 1.49 1.46 1.31 1.23
0.61 0.39 0.47 0.39 0.31 0.30 0.29 0.27 0.28 0.27 0.27 0.24 0.27 0.32 0.30 0.33 0.36 0.40 0.46 0.50 0.50 0.52 0.56 0.62 0.68 0.78 0.80 0.77 0.77 0.81 0.87 0.94 1.07 1.15 1.15 1.15 1.16 1.21 1.37 1.40 1.44 1.40 1.33 1.29
0.43 0.35 0.35 0.31 0.27 0.28 0.28 0.26 0.26 0.27 0.29 0.28 0.26 0.30 0.34 0.35 0.35 0.39 0.43 0.49 0.57 0.61 0.66 0.67 0.72 0.80 0.81 0.77 0.76 0.79 0.87 0.92 1.01 1.09 1.09 1.05 1.04 1.05 1.16 1.33 1.44 1.42 1.38 1.32
0.26 0.29 0.29 0.24 0.23 0.23 0.22 0.22 0.22 0.23 0.24 0.25 0.26 0.27 0.31 0.33 0.32 0.35 0.41 0.50 0.58 0.63 0.66 0.71 0.76 0.82 0.84 0.78 0.77 0.79 0.85 0.96 1.00 1.03 1.05 1.04 1.03 1.02 1.03 1.13 1.28 1.36 1.38 1.34
0.16 0.21 0.25 0.20 0.18 0.18 0.18 0.18 0.19 0.20 0.19 0.19 0.21 0.24 0.28 0.33 0.35 0.38 0.43 0.50 0.57 0.61 0.65 0.71 0.79 0.89 0.87 0.81 0.80 0.82 0.91 0.96 0.95 0.99 1.03 1.05 1.06 1.08 1.10 1.12 1.16 1.22 1.28 1.42
0.16 0.17 0.18 0.19 0.20 0.19 0.19 0.19 0.20 0.19 0.19 0.20 0.21 0.22 0.26 0.33 0.38 0.44 0.49 0.53 0.60 0.66 0.70 0.74 0.82 0.91 0.87 0.81 0.81 0.83 0.95 1.07 1.03 1.02 1.05 1.07 1.08 1.14 1.20 1.23 1.23 1.20 1.22 1.33
0.26 0.23 0.21 0.20 0.18 0.18 0.20 0.21 0.21 0.20 0.20 0.21 0.22 0.24 0.25 0.30 0.35 0.41 0.48 0.56 0.64 0.69 0.72 0.75 0.82 0.86 0.86 0.85 0.84 0.84 0.90 1.01 1.09 1.05 1.03 1.05 1.09 1.13 1.19 1.26 1.27 1.19 1.14 1.24
0.29 0.27 0.24 0.23 0.22 0.20 0.19 0.18 0.20 0.23 0.24 0.25 0.26 0.27 0.29 0.33 0.38 0.45 0.52 0.57 0.61 0.66 0.71 0.75 0.83 0.86 0.86 0.90 0.88 0.86 0.90 0.96 0.98 1.00 1.02 1.08 1.13 1.14 1.20 1.26 1.25 1.21 1.18 1.26
0.21 0.21 0.19 0.20 0.21 0.20 0.21 0.21 0.23 0.25 0.26 0.28 0.30 0.32 0.33 0.38 0.43 0.50 0.56 0.57 0.58 0.63 0.71 0.75 0.86 0.82 0.82 0.92 0.95 0.92 0.96 1.00 1.01 1.00 1.01 1.13 1.20 1.17 1.19 1.23 1.26 1.25 1.24 1.26
0.20 0.19 0.18 0.17 0.18 0.19 0.22 0.24 0.24 0.25 0.26 0.28 0.32 0.33 0.35 0.39 0.45 0.51 0.56 0.58 0.62 0.70 0.71 0.76 0.78 0.76 0.78 0.89 0.99 0.95 0.99 1.04 1.04 1.02 1.03 1.07 1.13 1.17 1.18 1.20 1.24 1.27 1.28 1.29
0.21 0.19 0.18 0.18 0.19 0.19 0.23 0.24 0.24 0.25 0.25 0.28 0.34 0.39 0.42 0.46 0.50 0.53 0.54 0.54 0.57 0.62 0.63 0.69 0.71 0.75 0.79 0.93 1.03 1.00 1.01 1.02 1.04 1.04 1.06 1.08 1.13 1.16 1.17 1.19 1.21 1.24 1.26 1.29
0.23 0.23 0.22 0.20 0.20 0.22 0.25 0.26 0.28 0.29 0.29 0.31 0.35 0.41 0.45 0.49 0.49 0.50 0.51 0.55 0.58 0.64 0.63 0.61 0.64 0.76 0.86 0.94 0.95 0.95 0.96 0.97 1.01 1.05 1.09 1.11 1.17 1.23 1.20 1.18 1.23 1.24 1.24 1.28
0.25 0.25 0.25 0.26 0.27 0.28 0.26 0.26 0.30 0.34 0.35 0.37 0.40 0.45 0.47 0.49 0.49 0.51 0.54 0.54 0.58 0.67 0.65 0.66 0.73 0.83 0.92 0.87 0.85 0.88 0.90 0.94 0.98 1.03 1.09 1.14 1.18 1.23 1.24 1.23 1.25 1.25 1.30 1.32
0.28 0.27 0.28 0.29 0.30 0.30 0.29 0.29 0.32 0.37 0.41 0.43 0.44 0.48 0.50 0.50 0.49 0.50 0.56 0.63 0.68 0.73 0.69 0.76 0.84 0.89 0.93 0.85 0.82 0.86 0.93 0.98 1.01 1.08 1.13 1.16 1.20 1.24 1.24 1.23 1.26 1.25 1.27 1.29
0.32 0.30 0.30 0.30 0.32 0.35 0.36 0.35 0.35 0.37 0.38 0.42 0.45 0.47 0.52 0.57 0.61 0.61 0.61 0.66 0.73 0.78 0.77 0.83 0.89 0.91 0.87 0.86 0.86 0.91 0.99 1.05 1.13 1.25 1.28 1.24 1.23 1.25 1.21 1.19 1.23 1.27 1.27 1.25
0.36 0.37 0.38 0.38 0.41 0.42 0.42 0.41 0.40 0.39 0.38 0.42 0.47 0.51 0.57 0.61 0.63 0.65 0.66 0.69 0.74 0.79 0.80 0.81 0.85 0.88 0.89 0.94 0.97 1.01 1.08 1.15 1.20 1.21 1.18 1.19 1.19 1.18 1.16 1.15 1.18 1.22 1.24 1.22
0.41 0.41 0.42 0.43 0.45 0.47 0.48 0.49 0.51 0.51 0.50 0.53 0.58 0.59 0.62 0.65 0.69 0.71 0.72 0.74 0.77 0.79 0.82 0.85 0.88 0.93 0.99 1.03 1.07 1.10 1.13 1.15 1.17 1.18 1.15 1.17 1.18 1.15 1.13 1.13 1.15 1.17 1.18 1.16